Satellite: NOAA-17
Catalog number: 27453
Epoch time:      12144.71848778
Element set:    0714
Inclination:      098.3370 deg
RA of node:       172.9890 deg
Eccentricity:    0.0010892
Arg of perigee:   225.2264 deg
Mean anomaly:     134.8016 deg
Mean motion:   14.24434017 rev/day
Decay rate:        6.9e-07 rev/day^2
Epoch rev:           51527
Checksum:              311

Satellite: NOAA-18
Catalog number: 28654
Epoch time:      12144.75453639
Element set:    0190
Inclination:      099.0449 deg
RA of node:       102.6416 deg
Eccentricity:    0.0013516
Arg of perigee:   221.5626 deg
Mean anomaly:     138.4518 deg
Mean motion:   14.11650237 rev/day
Decay rate:       -9.3e-07 rev/day^2
Epoch rev:           36111
Checksum:              289

Satellite: NOAA-19
Catalog number: 33591
Epoch time:      12144.82787889
Element set:    0382
Inclination:      098.8633 deg
RA of node:       084.9196 deg
Eccentricity:    0.0015061
Arg of perigee:   089.8753 deg
Mean anomaly:     270.4168 deg
Mean motion:   14.11338969 rev/day
Decay rate:       3.29e-06 rev/day^2
Epoch rev:           16957
Checksum:              365

/EX
SB KEPS @ AMSAT  $ORB12145.M
Orbital Elements  12145.MISC

HR AMSAT ORBITAL ELEMENTS FOR MANNED AND MISCELLANEOUS SATELLITES
FROM WA5QGD FORT WORTH,TX May 24, 2012
Send SUBSCRIBE KEPS/UNSUBSCRIBE KEPS to majordomo@amsat.org only
BID: ORB12145.M
TO ALL RADIO AMATEURS BT

Satellite: HUBBLE
Catalog number: 20580
Epoch time:      12143.81672536
Element set:       4
Inclination:      028.4714 deg
RA of node:       309.5688 deg
Eccentricity:    0.0003363
Arg of perigee:   143.9013 deg
Mean anomaly:     216.2393 deg
Mean motion:   15.02492313 rev/day
Decay rate:      2.000e-05 rev/day^2
Epoch rev:            1091
Checksum:              246

Satellite: ISS
Catalog number: 25544
Epoch time:      12145.89835000
Element set:     621
Inclination:      051.6404 deg
RA of node:       238.8498 deg
Eccentricity:    0.0010979
Arg of perigee:   357.5754 deg
Mean anomaly:     110.1131 deg
Mean motion:   15.56418703 rev/day
Decay rate:     1.8238e-04 rev/day^2
Epoch rev:           77438
Checksum:              305

Satellite: CO-58
Catalog number: 28895
Epoch time:      12145.65446007
Element set:     182
Inclination:      097.9178 deg
RA of node:       012.9589 deg
Eccentricity:    0.0017127
Arg of perigee:   221.6722 deg
Mean anomaly:     138.3230 deg
Mean motion:   14.60616907 rev/day
Decay rate:       8.65e-06 rev/day^2
Epoch rev:           35022
Checksum:              317

Satellite: FALCON
Catalog number: 30776
Epoch time:      12144.94947814
Element set:    0354
Inclination:      035.4319 deg
RA of node:       064.8671 deg
Eccentricity:    0.0001287
Arg of perigee:   202.2443 deg
Mean anomaly:     157.8225 deg
Mean motion:   15.07400200 rev/day
Decay rate:      4.551e-05 rev/day^2
Epoch rev:           28659
Checksum:              287

Satellite: MAST
Catalog number: 31126
Epoch time:      12145.55229770
Element set:     464
Inclination:      097.8740 deg
RA of node:       158.0370 deg
Eccentricity:    0.0093571
Arg of perigee:   183.6567 deg
Mean anomaly:     176.3940 deg
Mean motion:   14.54144023 rev/day
Decay rate:       5.63e-06 rev/day^2
Epoch rev:           27083
Checksum:              298

Satellite: CAPE1
Catalog number: 31130
Epoch time:      12144.67303572
Element set:    0478
Inclination:      097.8820 deg
RA of node:       153.6040 deg
Eccentricity:    0.0100790
Arg of perigee:   199.4938 deg
Mean anomaly:     160.2383 deg
Mean motion:   14.52916345 rev/day
Decay rate:       5.99e-06 rev/day^2
Epoch rev:           27021
Checksum:              293

Satellite: COMPASS
Catalog number: 32787
Epoch time:      12144.66025615
Element set:    0310
Inclination:      097.8013 deg
RA of node:       206.5365 deg
Eccentricity:    0.0015785
Arg of perigee:   137.3609 deg
Mean anomaly:     222.8860 deg
Mean motion:   14.83916215 rev/day
Decay rate:      2.168e-05 rev/day^2
Epoch rev:           22017
Checksum:              289

Satellite: AAUSAT2
Catalog number: 32788
Epoch time:      12144.90483209
Element set:    0302
Inclination:      097.8043 deg
RA of node:       207.1439 deg
Eccentricity:    0.0015927
Arg of perigee:   136.7284 deg
Mean anomaly:     223.5183 deg
Mean motion:   14.84233109 rev/day
Decay rate:      2.325e-05 rev/day^2
Epoch rev:           22023
Checksum:              282

Satellite: DO-64
Catalog number: 32789
Epoch time:      12145.64983381
Element set:     317
Inclination:      097.8144 deg
RA of node:       209.8056 deg
Eccentricity:    0.0015750
Arg of perigee:   132.3481 deg
Mean anomaly:     227.9100 deg
Mean motion:   14.85669889 rev/day
Decay rate:      4.259e-05 rev/day^2
Epoch rev:           22038
Checksum:              337

Satellite: CO-66
Catalog number: 32791
Epoch time:      12144.64031200
Element set:    0302
Inclination:      097.8019 deg
RA of node:       206.2777 deg
Eccentricity:    0.0016514
Arg of perigee:   137.4927 deg
Mean anomaly:     222.7590 deg
Mean motion:   14.83348469 rev/day
Decay rate:      1.665e-05 rev/day^2
Epoch rev:           22010
Checksum:              291

